Regional Weather Roundup
Issued by NWS

Home | Current Version | Previous Version | Graphics & Text | Print | Product List | Glossary On
Versions: 1 2 3 4 5 6 7 8 9 10 11 12 13 14 15 16 17 18 19 20 21 22 23 24 25 26 27
000
ASUS45 KTFX 181010
RWRMT
MONTANA REGIONAL WEATHER ROUNDUP
NATIONAL WEATHER SERVICE GREAT FALLS MT
300 AM MST SAT NOV 18 2017

NOTE: "FAIR" INDICATES FEW OR NO CLOUDS BELOW 12000 FEET WITH NO
SIGNIFICANT WEATHER AND/OR OBSTRUCTIONS TO VISIBILITY.

MTZ001>007-043-181100-
WEST OF THE DIVIDE

CITY           SKY/WX    TMP DP  RH WIND       PRES   REMARKS
KALISPELL      CLOUDY    37  24  59 SW12      30.19R WCI  29
MISSOULA       CLOUDY    35  24  64 CALM      30.25R
BUTTE          FAIR      18  10  71 CALM      30.20R
MULLAN PASS    CLOUDY    22  19  89 W8G23     30.16R WCI  12
ANACONDA         N/A     27  12  54 S8        30.21R WCI  18
EUREKA           N/A     37  21  52 MISG      30.18R
HAMILTON         N/A     36  19  51 S9        30.27R WCI  29
LIBBY            N/A     34  28  80 CALM      30.20R
PLAINS           N/A     41  22  47 NW6       30.23
RONAN            N/A     35  25  67 SE1       30.25R
$$

MTZ008-052>055-181100-
SOUTHWEST MONTANA

CITY           SKY/WX    TMP DP  RH WIND       PRES   REMARKS
BOZEMAN        FAIR      19  11  70 SE7       30.22R WCI  10
DILLON         FAIR      26  11  52 S14       30.21R WCI  14
W YELLOWSTONE  FAIR      14   7  73 S5        30.23R
ENNIS          CLOUDY    27  10  50 S10G17    30.27R WCI  17
TWIN BRIDGES     N/A     27  10  48 CALM      30.18
$$

MTZ009-010-012-014-046-048-049-054-181100-
EAST SLOPES AND CENTRAL MONTANA

CITY           SKY/WX    TMP DP  RH WIND       PRES   REMARKS
CUT BANK       FAIR      33  21  61 W25G39    30.00R WCI  20
GREAT FALLS    FAIR      33  17  51 SW20      30.04R WCI  21
MALMSTROM AFB  MOCLDY    34  18  52 SW21      30.05R WCI  22
HELENA         MOCLDY    36  16  44 W22G28    30.17R WCI  25
BOWMANS CRNR   CLOUDY    30  21  67 SW20      30.04S WCI  18
CHOTEAU          N/A     37  16  41 W14       30.02R WCI  29
FAIRFIELD      CLOUDY    36  17  46 SW23      30.01R WCI  24
POWER          MOCLDY    33  18  53 W17       30.02R WCI  23
RAYNESFORD     FAIR      33  17  52 SW24G36   30.03R WCI  21
ULM            MOCLDY    35  19  52 W25G32    30.06R WCI  22
$$

MTZ011-013-016-021-045-047-050-051-181100-
NORTH CENTRAL MONTANA

CITY           SKY/WX    TMP DP  RH WIND       PRES   REMARKS
HAVRE          FAIR      11   8  88 CALM      30.05S
LEWISTOWN      FAIR      28  17  63 SW15      30.04R WCI  16
N BAR RANCH    FAIR      27  12  54 CALM      30.05R
CHINOOK          N/A     10   7  85 W5        30.07S
DENTON         FAIR      33  17  51 MISG      30.01R
GEYSER         FAIR      28  17  65 W12       30.03R WCI  17
GRASS RANGE    FAIR      30  16  57 W16       30.00R WCI  18
STANFORD       FAIR      28  15  57 NE3       30.03R
WINIFRED       FAIR      28  19  68 W8        30.02R WCI  20
$$

MTZ017>020-022>027-061-062-181100-
NORTHEAST MONTANA

CITY           SKY/WX    TMP DP  RH WIND       PRES   REMARKS
GLASGOW        FAIR      10   7  87 W7        30.07R WCI  -1
GLENDIVE       FAIR      14  11  87 NW8       30.04R WCI   3
JORDAN           N/A     18  14  84 N3        30.03S
SIDNEY         FAIR      13   8  81 W9        30.07R WCI   1
WOLF POINT     FAIR       9   4  80 W5        30.09R
MALTA          PTCLDY    12   9  85 W7        30.08R WCI   2
PLENTYWOOD       N/A      9   5  85 CALM      30.02R
POPLAR           N/A     10   3  72 SW5       30.09R
SCOBEY           N/A      6  -4  63 CALM      29.99
$$

MTZ028>42-056>058-181100-
SOUTHCENTRAL AND SOUTHEAST MONTANA

CITY           SKY/WX    TMP DP  RH WIND       PRES   REMARKS
BAKER          FAIR      28  24  85 NW14      29.98R WCI  17
BILLINGS       FAIR      34  15  46 W21       30.09R WCI  22
LIVINGSTON     FAIR      29  14  53 W20       30.15R WCI  16
MILES CITY     FAIR      27  22  81 NW8       30.04R WCI  19
BIG TIMBER     CLEAR     32  12  43 W40G52    30.10R WCI  16
EKALAKA          N/A     30  19  63 W14       29.95R WCI  19
FORSYTH          N/A     32  19  59 W6        30.05R WCI  26
HARLOWTON      MOCLDY    29  17  61 NW14      30.08R WCI  18
LAUREL           N/A     36  12  38 W21G28    30.12R WCI  24
ROUNDUP          N/A     33  14  45 SW17      29.97R WCI  22
$$

REGIONAL REPORTS...DAKOTAS

CITY           SKY/WX    TMP DP  RH WIND       PRES   REMARKS
WILLISTON      FAIR      11   6  81 W10       30.05R WCI  -3
MINOT          FAIR      15   8  73 W16       29.95R WCI  -1
DICKINSON      MOCLDY    16  11  80 NW13      29.95R WCI   2
BEACH          FAIR      12  10  92 NW10      30.03R WCI  -1
CROSBY         FAIR      12   9  85 NW13      30.00R WCI  -3
TIOGA          FAIR       9   9 100 W13       29.99R WCI  -7
WATFORD CITY   FAIR      10   7  85 W8        30.02R WCI  -1
BISMARCK       FAIR      24  18  77 NW7       29.96R WCI  16
GRAND FORKS    CLOUDY    17  12  80 NW12      29.88R WCI   4
FARGO          FAIR      17  14  88 NW5       29.87R
BUFFALO SD       N/A     28  23  81 NW17      29.89R WCI  16
RAPID CITY     FAIR      34  23  64 NW20      29.98R WCI  23
$$

REGIONAL REPORTS...WYOMING/IDAHO/WASHINGTON

CITY           SKY/WX    TMP DP  RH WIND       PRES   REMARKS
GILLETTE       FAIR      28  17  63 W12       30.06R WCI  18
SHERIDAN       FAIR      28  17  63 W14       30.08R WCI  17
BUFFALO WY     FAIR      31   7  36 NW22G29   30.06R WCI  18
CODY           FAIR      31  12  45 W22G35    30.11R WCI  18
YELLOWSTONE LA   N/A      1  -2  87 NW3       30.21R
IDAHO FALLS    FAIR      26  23  88 S14       30.33R WCI  14
SALMON         CLOUDY    29  17  61 S7        30.33R WCI  22
BOISE          FAIR      30  24  78 SE8       30.39R WCI  22
SPOKANE        MOCLDY    32  31  96 S9        30.27R WCI  24
$$

REGIONAL REPORTS...ALBERTA

CITY           SKY/WX    TMP DP  RH WIND       PRES   REMARKS
EDMONTON       CLEAR      9   5  85 SW7       29.89S WCI  -3
CALGARY        PTCLDY     9   5  85 SW5       29.90R
LETHBRIDGE     PTCLDY    32  23  69 W22       29.96R WCI  19
MEDICINE HAT   PTCLDY     5   1  85 SW9       30.03S WCI  -9
$$

REGIONAL REPORTS...SASKATCHEWAN

CITY           SKY/WX    TMP DP  RH WIND       PRES   REMARKS
SWIFT CURRENT  PTCLDY     7   3  85 W14       29.98R WCI -10
REGINA         PTCLDY     3  -2  78 W13       30.00R WCI -14
SASKATOON      CLEAR     -9 -15  77 SW9       30.01R WCI -27
$$




USA.gov is the U.S. government's official web portal to all federal, state and local government web resources and services.